Vorticity
nan nan nan nan nan nan nan nan nan nan nan nan nan nan nan nan nan nan nan nan nan nan nan nan nan nan nan nan nan nan nan nan
nan 9 10 9 11 15 14 10 8 7 8 6 7 8 7 6 10 10 8 9 8 6 7 8 8 9 8 6 8 9 6 nan
nan 9 10 10 12 13 14 12 9 6 6 6 10 12 10 9 9 10 9 9 7 8 7 7 7 8 9 7 4 6 10 nan
nan 14 10 10 11 14 15 13 11 9 5 1 5 9 11 12 10 11 11 10 8 8 6 7 7 7 8 8 8 5 6 nan
nan 17 13 10 12 12 15 17 11 10 9 7 6 4 3 8 8 8 12 11 8 8 8 8 6 7 9 8 8 7 6 nan
nan 11 11 8 11 15 17 20 14 12 10 6 4 6 4 10 15 11 8 10 11 8 7 7 7 7 10 9 8 7 5 nan
nan 9 12 10 11 13 20 23 17 12 10 9 9 6 5 7 9 8 8 8 10 10 9 7 7 7 8 9 10 8 6 nan
nan 10 9 8 8 12 15 21 23 15 12 9 9 9 9 8 6 7 8 7 9 11 9 7 8 9 8 8 9 9 7 nan
nan 9 10 9 7 9 11 10 22 23 11 10 9 9 9 10 10 8 9 10 11 11 8 9 9 8 8 8 8 10 10 nan
nan 12 9 9 9 8 9 9 10 22 23 11 10 8 10 10 10 9 9 10 13 13 10 9 10 9 9 7 7 8 10 nan
nan 10 12 10 9 10 9 10 10 12 21 18 12 10 8 10 11 11 9 10 11 11 10 8 8 9 10 8 7 8 7 nan
nan 11 9 10 10 11 10 8 10 12 13 17 17 11 11 11 10 10 10 10 11 10 9 10 10 10 10 9 8 8 8 nan
nan 11 11 10 9 9 11 10 10 11 13 19 18 12 12 10 10 11 10 9 9 9 10 8 9 10 11 11 10 10 10 nan
nan 10 9 10 11 9 9 11 12 11 11 20 21 11 11 10 9 8 8 9 9 9 9 9 9 9 9 10 11 14 12 nan
nan 9 9 10 10 10 10 11 11 11 12 13 14 15 14 10 10 10 9 9 10 10 9 10 10 10 11 11 12 13 13 nan
nan 10 9 10 11 11 10 10 11 11 11 11 11 18 19 14 10 10 12 12 12 13 12 11 10 9 7 8 15 21 17 nan
nan 10 9 9 11 12 11 10 11 13 11 12 11 15 13 14 17 14 10 10 12 12 12 12 11 4 6 16 17 18 25 nan
nan 9 11 10 10 11 11 12 12 13 10 10 12 12 12 12 14 13 12 12 10 7 10 10 9 5 12 21 18 14 13 nan
nan nan nan nan nan nan nan nan nan nan nan nan nan nan nan nan nan nan nan nan nan nan nan nan nan nan nan nan nan nan nan nan
CAPE
0 0 0 0 0 0 0 1458 2310 2254 2008 1464 1251 955 1102 939 989 954 809 854 461 350 137 119 103 135 204 208 169 140 106 89
0 0 0 0 0 0 0 283 2168 2182 2093 1787 1486 1340 1210 1019 1031 1013 659 801 494 419 236 183 176 161 233 267 226 161 58 17
0 0 0 0 0 0 0 87 1618 2063 2185 2062 1780 1547 1253 1170 1012 889 854 631 438 452 395 262 255 232 206 253 209 186 119 30
0 0 0 0 0 0 0 9 790 1873 2126 1996 956 694 757 824 770 966 939 649 443 334 370 373 339 369 303 278 198 157 148 101
0 0 0 0 0 0 0 0 643 1592 2001 1883 1446 1471 1359 1297 1198 1100 1158 834 602 493 302 357 391 383 328 242 178 129 112 70
0 0 0 0 0 0 0 0 242 1334 1940 1869 1568 1410 1258 964 999 966 934 748 577 533 354 331 349 353 292 188 132 94 69 64
3 2 0 0 0 0 0 523 743 1629 2012 1828 1539 1400 1038 888 915 983 774 540 550 478 369 357 309 311 272 211 150 92 60 19
8 12 5 2 0 0 0 368 1941 1867 2029 1831 1568 1320 811 791 854 924 734 506 319 346 298 280 268 318 285 241 156 99 52 10
12 15 11 6 2 0 0 0 59 2034 1892 1716 1471 876 525 559 556 670 410 372 388 225 210 232 280 269 255 227 174 104 55 31
2 4 9 9 6 2 1 0 0 0 1599 1397 1098 440 225 282 228 225 227 85 0 38 148 198 191 218 217 141 107 58 54 41
1 1 3 6 7 7 1 1 1 2 36 794 427 263 175 56 6 0 0 0 0 0 0 31 72 131 126 119 102 51 56 24
2 1 2 2 7 4 9 2 2 5 3 6 218 145 53 18 13 0 0 0 0 0 0 2 16 61 85 109 110 89 61 46
2 1 2 6 4 2 4 12 4 3 3 1 21 29 23 24 1 0 0 0 0 0 0 1 1 1 10 42 55 32 19 34
1 1 2 2 3 4 4 3 13 7 6 3 3 1 5 0 0 0 0 0 0 0 0 0 0 0 0 0 1 10 9 4
2 2 3 4 4 7 4 4 3 4 3 2 2 3 0 0 0 0 0 0 0 0 0 0 0 0 0 1 3 4 3 10
3 4 5 4 5 3 3 3 4 5 7 3 3 7 2 0 0 0 0 0 0 0 0 0 0 0 0 0 1 3 6 1
1 4 4 7 7 5 3 3 5 4 2 4 5 2 1 1 2 1 0 0 0 0 0 0 0 0 0 1 1 1 1 7
2 4 4 7 7 5 3 3 2 4 3 3 2 3 3 2 2 1 1 1 0 0 0 0 1 0 0 1 0 0 0 0
2 3 2 3 4 3 2 1 2 1 2 4 3 2 2 3 1 2 2 2 2 2 1 1 1 1 0 0 0 0 0 0